Change the Weather History Date:

Sunday, December 9, 2012

  Actual Average Record
Temperature  
Mean Temperature 26 °F -  
Max Temperature 28 °F 20 °F 43 °F (2005)
Min Temperature 24 °F 6 °F -30 °F (1966)
Degree Days  
Heating Degree Days 39    
Moisture  
Dew Point 23 °F    
Average Humidity 90    
Maximum Humidity 96    
Minimum Humidity 86    
Precipitation  
Precipitation 0.20 in - - ()
Sea Level Pressure  
Sea Level Pressure 29.37 in    
Wind  
Wind Speed 12 mph (NE)    
Max Wind Speed 18 mph    
Max Gust Speed 23 mph    
Visibility 3 miles    
Events Snow    
Averages and records for this station are not official NWS values.
T = Trace of Precipitation, MM = Missing Value Source: NWS Daily Summary

Daily Weather History Graph

Daily Weather History Graph

Search for Another Location

Airport or City:

Trip Planner

Search our weather history database for the weather conditions in past years. The results will help you decide how hot, cold, wet, or windy it might be!

Date:

Astronomy

Dec. 09, 2012 Rise Set
Actual Time 10:00 AM AKST 3:54 PM AKST
Civil Twilight 9:02 AM AKST 4:52 PM AKST
Nautical Twilight 8:04 AM AKST 5:50 PM AKST
Astronomical Twilight 7:12 AM AKST 6:42 PM AKST
Moon 4:52 AM AKST (12/9) 1:55 PM AKST (12/9)
Length of Visible Light 7h 50m
Length of Day
5h 53m
Waning Crescent, 17% of the Moon is Illuminated
Dec 9
Waning Crescent
Dec 12
New
Dec 19
First Quarter
Dec 28
Full
Jan 4
Last Quarter

Hourly Weather History & Observations

Time (AKST) Temp. Windchill Dew Point Humidity Pressure Visibility Wind Dir Wind Speed Gust Speed Precip Events Conditions
12:04 AM 24.8 °F 11.5 °F 21.2 °F 86% 29.28 in 3.0 mi NE 17.3 mph - 0.00 in Snow Snow
12:17 AM 24.8 °F 11.1 °F 21.2 °F 86% 29.28 in 2.0 mi NE 18.4 mph - 0.00 in Snow Snow
12:30 AM 24.8 °F 11.9 °F 21.2 °F 86% 29.28 in 1.5 mi NE 16.1 mph - 0.01 in Snow Snow
12:44 AM 24.8 °F 11.9 °F 21.2 °F 86% 29.28 in 1.5 mi NE 16.1 mph - 0.01 in Snow Snow
12:53 AM 24.1 °F 10.6 °F 21.9 °F 91% 29.29 in 1.5 mi NE 17.3 mph - 0.01 in Snow Snow
1:03 AM 24.8 °F 11.9 °F 21.2 °F 86% 29.27 in 1.8 mi NE 16.1 mph - 0.00 in Snow Snow
1:17 AM 24.8 °F 12.9 °F 21.2 °F 86% 29.27 in 2.0 mi NE 13.8 mph - 0.00 in Snow Snow
1:45 AM 24.8 °F 11.9 °F 21.2 °F 86% 29.27 in 3.0 mi NE 16.1 mph - 0.00 in Snow Snow
1:53 AM 24.1 °F 11.5 °F 21.9 °F 91% 29.28 in 2.5 mi NE 15.0 mph 23.0 mph 0.00 in Snow Snow
2:03 AM 24.8 °F 13.4 °F 21.2 °F 86% 29.27 in 3.0 mi NE 12.7 mph - 0.00 in Snow Snow
2:26 AM 24.8 °F 13.4 °F 21.2 °F 86% 29.28 in 2.5 mi NE 12.7 mph - 0.00 in Snow Snow
2:36 AM 24.8 °F 14.0 °F 21.2 °F 86% 29.28 in 2.0 mi NE 11.5 mph - 0.00 in Snow Snow
2:50 AM 24.8 °F 14.0 °F 21.2 °F 86% 29.28 in 3.0 mi NE 11.5 mph - 0.01 in Snow Snow
3:20 AM 24.8 °F 14.6 °F 21.2 °F 86% 29.29 in 8.0 mi NE 10.4 mph - 0.00 in Snow Snow
3:53 AM 24.1 °F 14.4 °F 21.9 °F 91% 29.30 in 9.0 mi NE 9.2 mph - 0.00 in Snow Snow
4:53 AM 24.1 °F 13.7 °F 21.9 °F 91% 29.30 in 5.0 mi NE 10.4 mph - 0.00 in Snow Snow
5:17 AM 24.8 °F 14.6 °F 21.2 °F 86% 29.30 in 2.0 mi NE 10.4 mph - 0.00 in Snow Snow
5:25 AM 24.8 °F 15.3 °F 21.2 °F 86% 29.30 in 1.8 mi NE 9.2 mph - 0.01 in Snow Snow
5:39 AM 24.8 °F 15.3 °F 21.2 °F 86% 29.30 in 2.5 mi NE 9.2 mph - 0.01 in Snow Snow
5:51 AM 24.8 °F 14.6 °F 21.2 °F 86% 29.30 in 1.2 mi NE 10.4 mph - 0.02 in Snow Snow
5:53 AM 24.1 °F 13.7 °F 21.9 °F 91% 29.31 in 1.0 mi NE 10.4 mph - 0.02 in Snow Snow
6:34 AM 24.8 °F 15.3 °F 21.2 °F 86% 29.31 in 2.0 mi NE 9.2 mph - 0.01 in Snow Snow
6:53 AM 24.1 °F 13.7 °F 21.9 °F 91% 29.31 in 1.8 mi NE 10.4 mph - 0.01 in Snow Snow
6:55 AM 24.8 °F 14.6 °F 21.2 °F 86% 29.31 in 2.0 mi NE 10.4 mph - 0.00 in Snow Snow
7:53 AM 25.0 °F 14.2 °F 21.9 °F 88% 29.33 in 9.0 mi NNE 11.5 mph - 0.00 in Snow Light Snow
8:53 AM 25.0 °F 13.6 °F 21.9 °F 88% 29.34 in 9.0 mi NE 12.7 mph - 0.00 in Snow Light Snow
9:53 AM 25.0 °F 14.2 °F 23.0 °F 92% 29.36 in 2.0 mi NE 11.5 mph - 0.00 in Snow Light Snow
9:55 AM 24.8 °F 14.0 °F 23.0 °F 93% 29.35 in 2.0 mi NE 11.5 mph - 0.00 in Snow Light Snow
10:53 AM 25.0 °F 12.6 °F 23.0 °F 92% 29.36 in 1.2 mi NE 15.0 mph - 0.01 in Snow Light Snow
11:02 AM 24.8 °F 11.9 °F 23.0 °F 93% 29.34 in 1.2 mi NE 16.1 mph - 0.00 in Snow Light Snow
11:09 AM 24.8 °F 12.4 °F 23.0 °F 93% 29.35 in 3.0 mi NE 15.0 mph - 0.00 in Snow Light Snow
11:35 AM 24.8 °F 15.3 °F 23.0 °F 93% 29.37 in 2.0 mi NE 9.2 mph - 0.00 in Snow Light Snow
11:46 AM 24.8 °F 14.0 °F 23.0 °F 93% 29.37 in 2.0 mi ENE 11.5 mph - 0.00 in Snow Light Snow
11:50 AM 24.8 °F 15.3 °F 23.0 °F 93% 29.37 in 0.8 mi NE 9.2 mph - 0.00 in Snow Light Snow
11:53 AM 25.0 °F 14.8 °F 23.0 °F 92% 29.39 in 0.8 mi NE 10.4 mph - 0.01 in Snow Light Snow
12:31 PM 24.8 °F 14.6 °F 23.0 °F 93% 29.38 in 1.0 mi NE 10.4 mph - 0.02 in Snow Light Snow
12:53 PM 25.0 °F 16.3 °F 23.0 °F 92% 29.39 in 1.2 mi NE 8.1 mph - 0.02 in Snow Light Snow
1:10 PM 26.6 °F 17.5 °F 23.0 °F 86% 29.39 in 0.8 mi NNE 9.2 mph - 0.01 in Snow Light Snow
1:53 PM 26.1 °F 17.6 °F 24.1 °F 92% 29.41 in 0.8 mi NNE 8.1 mph - 0.02 in Snow Light Snow
2:17 PM 26.6 °F 18.2 °F 24.8 °F 93% 29.40 in 4.0 mi NNE 8.1 mph - 0.00 in Snow Light Snow
2:53 PM 26.1 °F 17.6 °F 24.1 °F 92% 29.42 in 8.0 mi NNE 8.1 mph - 0.00 in Snow Light Snow
3:36 PM 26.6 °F 19.1 °F 24.8 °F 93% 29.42 in 4.0 mi NNE 6.9 mph - 0.00 in Snow Light Snow
3:44 PM 26.6 °F 20.0 °F 24.8 °F 93% 29.42 in 2.0 mi NNE 5.8 mph - 0.01 in Snow Light Snow
3:53 PM 27.0 °F 19.5 °F 25.0 °F 92% 29.43 in 2.5 mi NNE 6.9 mph - 0.01 in Snow Light Snow
4:15 PM 26.6 °F 19.1 °F 24.8 °F 93% 29.42 in 3.0 mi NNE 6.9 mph - 0.00 in Snow Light Snow
4:43 PM 26.6 °F 20.0 °F 24.8 °F 93% 29.43 in 2.5 mi NNE 5.8 mph - 0.00 in Snow Light Snow
4:53 PM 27.0 °F 21.6 °F 25.0 °F 92% 29.45 in 1.5 mi NNE 4.6 mph - 0.00 in Snow Light Snow
5:53 PM 27.0 °F 19.5 °F 25.0 °F 92% 29.45 in 3.0 mi NE 6.9 mph - 0.03 in Snow Light Snow
6:39 PM 26.6 °F 19.1 °F 24.8 °F 93% 29.45 in 3.0 mi North 6.9 mph - 0.01 in Snow Light Snow
6:47 PM 26.6 °F 19.1 °F 24.8 °F 93% 29.45 in 2.0 mi North 6.9 mph - 0.01 in Snow Light Snow
6:53 PM 27.0 °F 20.5 °F 25.0 °F 92% 29.47 in 1.5 mi North 5.8 mph - 0.02 in Snow Light Snow
7:53 PM 27.0 °F 21.6 °F 26.1 °F 96% 29.48 in 3.0 mi North 4.6 mph - 0.01 in Snow Light Snow
8:53 PM 28.0 °F 24.2 °F 26.1 °F 92% 29.50 in 2.5 mi North 3.5 mph - 0.02 in Snow Light Snow
9:10 PM 28.4 °F - 26.6 °F 93% 29.49 in 3.0 mi Calm Calm - 0.00 in Snow Light Snow
9:33 PM 28.4 °F - 26.6 °F 93% 29.51 in 4.0 mi Calm Calm - 0.00 in Snow Light Snow
9:53 PM 28.0 °F - 26.1 °F 92% 29.52 in 5.0 mi Calm Calm - 0.00 in Snow Light Snow
10:53 PM 26.1 °F - 25.0 °F 96% 29.53 in 9.0 mi Calm Calm - 0.01 in   Overcast
11:53 PM 27.0 °F - 25.0 °F 92% 29.55 in 10.0 mi Calm Calm - N/A   Overcast